TimeEST,TemperatureF,Dew PointF,Humidity,Sea Level PressureIn,VisibilityMPH,Wind Direction,Wind SpeedMPH,Gust SpeedMPH,PrecipitationIn,Events,Conditions,WindDirDegrees,DateUTC
12:29 AM,19.4,12.2,74,29.95,10.0,WNW,8.1,-,N/A,,Overcast,290,2013-02-16 05:29:00
12:49 AM,21.2,12.2,68,29.96,10.0,NW,9.2,-,N/A,,Overcast,310,2013-02-16 05:49:00
12:56 AM,21.0,12.0,68,30.04,10.0,NW,8.1,-,N/A,,Overcast,320,2013-02-16 05:56:00
1:21 AM,19.4,12.2,74,29.95,10.0,NW,9.2,-,N/A,,Overcast,320,2013-02-16 06:21:00
1:56 AM,19.0,12.0,74,30.04,10.0,WNW,8.1,-,N/A,,Overcast,300,2013-02-16 06:56:00
2:56 AM,18.0,10.9,74,30.04,10.0,Calm,Calm,-,N/A,,Overcast,0,2013-02-16 07:56:00
3:39 AM,17.6,10.4,73,29.94,8.0,West,3.5,-,0.00,Snow,Light Snow,270,2013-02-16 08:39:00
3:56 AM,18.0,10.9,74,30.02,9.0,WNW,4.6,-,0.00,,Overcast,300,2013-02-16 08:56:00
4:44 AM,17.6,12.2,79,29.93,2.0,NNW,4.6,-,0.00,Snow,Light Snow,340,2013-02-16 09:44:00
4:56 AM,18.0,12.9,81,30.02,4.0,NNW,4.6,-,0.00,Snow,Light Snow,330,2013-02-16 09:56:00
6:56 AM,18.0,9.0,68,30.03,10.0,NW,5.8,-,N/A,,Overcast,320,2013-02-16 11:56:00
7:56 AM,16.0,7.0,68,30.04,10.0,WNW,8.1,-,0.00,,Overcast,290,2013-02-16 12:56:00
8:18 AM,15.8,6.8,68,29.93,10.0,West,6.9,-,0.00,,Scattered Clouds,280,2013-02-16 13:18:00
8:56 AM,17.1,7.0,65,30.03,10.0,West,6.9,-,0.00,,Clear,280,2013-02-16 13:56:00
9:56 AM,19.9,7.0,57,30.02,10.0,NW,3.5,-,N/A,,Clear,320,2013-02-16 14:56:00
10:56 AM,21.9,6.1,51,30.00,10.0,Calm,Calm,-,N/A,,Clear,0,2013-02-16 15:56:00
11:56 AM,23.0,6.1,48,29.99,10.0,NW,6.9,16.1,N/A,,Mostly Cloudy,320,2013-02-16 16:56:00
12:56 PM,24.1,6.1,46,29.96,10.0,NNW,5.8,-,N/A,,Overcast,340,2013-02-16 17:56:00
1:56 PM,25.0,6.1,45,29.94,10.0,Variable,6.9,-,N/A,,Mostly Cloudy,0,2013-02-16 18:56:00
2:56 PM,24.1,7.0,48,29.94,10.0,NW,6.9,-,N/A,,Overcast,320,2013-02-16 19:56:00
3:56 PM,24.1,6.1,46,29.94,10.0,North,5.8,-,N/A,,Overcast,350,2013-02-16 20:56:00
4:56 PM,24.1,6.1,46,29.94,10.0,NNW,5.8,-,N/A,,Overcast,330,2013-02-16 21:56:00
5:56 PM,21.9,8.1,55,29.95,10.0,NNW,5.8,-,N/A,,Overcast,340,2013-02-16 22:56:00
6:56 PM,19.9,10.0,65,29.97,10.0,NNW,10.4,-,N/A,,Overcast,330,2013-02-16 23:56:00
7:33 PM,19.4,12.2,74,29.86,10.0,NW,11.5,19.6,N/A,,Overcast,320,2013-02-17 00:33:00
7:56 PM,19.9,12.0,71,29.97,10.0,NW,11.5,-,N/A,,Overcast,320,2013-02-17 00:56:00
8:03 PM,19.4,10.4,68,29.86,10.0,NW,12.7,-,N/A,,Overcast,320,2013-02-17 01:03:00
8:56 PM,18.0,8.1,65,29.96,10.0,NW,9.2,-,N/A,,Overcast,310,2013-02-17 01:56:00
9:56 PM,18.0,8.1,65,29.94,10.0,NW,5.8,-,N/A,,Overcast,310,2013-02-17 02:56:00
10:56 PM,15.1,6.1,68,29.93,10.0,NW,6.9,-,N/A,,Clear,310,2013-02-17 03:56:00
11:56 PM,12.9,5.0,71,29.91,10.0,WNW,6.9,-,N/A,,Clear,300,2013-02-17 04:56:00